N12973 KBHM-KMEM

Flight info

Callsign N12973
Flight time N/A
Altitude VFR/035
Route VFR EAST
Aircraft C172/L-VGD/C

Departure

Time N/A
Airport Birmingham-Shuttlesworth International Airport (KBHM)

Arrival

Time 2026-05-06 01:10
Airport Memphis International Airport (KMEM)
Time Latitude Longitude Altitude Speed Heading
2026-05-06 00:59 35.29987 -89.98025 1995 ft 91 kts 171°
2026-05-06 00:59 35.29346 -89.98035 1972 ft 92 kts 194°
2026-05-06 00:59 35.28707 -89.98042 2001 ft 95 kts 179°
2026-05-06 00:59 35.28101 -89.97936 2220 ft 79 kts 176°
2026-05-06 01:00 35.27563 -89.97739 2312 ft 84 kts 167°
2026-05-06 01:00 35.26939 -89.97463 2057 ft 96 kts 177°
2026-05-06 01:00 35.26287 -89.97328 1891 ft 90 kts 179°
2026-05-06 01:00 35.25718 -89.97325 1889 ft 76 kts 187°
2026-05-06 01:01 35.25217 -89.97352 1882 ft 68 kts 188°
2026-05-06 01:01 35.24812 -89.97700 1708 ft 90 kts 240°
2026-05-06 01:01 35.24619 -89.98414 1822 ft 92 kts 254°
2026-05-06 01:01 35.24581 -89.99207 1936 ft 88 kts 251°
2026-05-06 01:02 35.24517 -89.99946 2008 ft 87 kts 240°
2026-05-06 01:02 35.24276 -90.00562 1988 ft 76 kts 230°
2026-05-06 01:02 35.23835 -90.00789 1803 ft 75 kts 187°
2026-05-06 01:02 35.23272 -90.00842 1535 ft 95 kts 188°
2026-05-06 01:03 35.22531 -90.00861 1261 ft 115 kts 182°
2026-05-06 01:03 35.21675 -90.00885 920 ft 127 kts 182°
2026-05-06 01:03 35.20792 -90.00900 757 ft 124 kts 181°
2026-05-06 01:03 35.19957 -90.00931 788 ft 110 kts 184°
2026-05-06 01:04 35.19225 -90.01012 868 ft 103 kts 184°
2026-05-06 01:04 35.18517 -90.01095 926 ft 100 kts 185°
2026-05-06 01:04 35.17840 -90.01205 1011 ft 97 kts 190°
2026-05-06 01:04 35.17181 -90.01360 1073 ft 95 kts 192°
2026-05-06 01:05 35.16527 -90.01538 1114 ft 96 kts 191°
2026-05-06 01:05 35.15887 -90.01568 1181 ft 88 kts 169°
2026-05-06 01:05 35.15336 -90.01271 1160 ft 84 kts 155°
2026-05-06 01:05 35.14883 -90.00835 1143 ft 83 kts 145°
2026-05-06 01:06 35.14473 -90.00319 1084 ft 86 kts 138°
2026-05-06 01:06 35.14090 -89.99735 984 ft 89 kts 137°
2026-05-06 01:06 35.13660 -89.99291 920 ft 79 kts 155°
2026-05-06 01:06 35.13163 -89.99062 841 ft 75 kts 172°
2026-05-06 01:07 35.12650 -89.98961 758 ft 74 kts 178°
2026-05-06 01:07 35.12066 -89.98879 720 ft 93 kts 176°
2026-05-06 01:07 35.11406 -89.98836 813 ft 90 kts 179°
2026-05-06 01:07 35.10799 -89.98850 784 ft 86 kts 183°
2026-05-06 01:08 35.10174 -89.98840 677 ft 92 kts 179°
2026-05-06 01:08 35.09531 -89.98831 636 ft 97 kts 183°
2026-05-06 01:08 35.08821 -89.98833 609 ft 103 kts 181°
2026-05-06 01:08 35.08108 -89.98821 713 ft 97 kts 178°
2026-05-06 01:09 35.07488 -89.98796 724 ft 85 kts 181°
2026-05-06 01:09 35.06891 -89.98789 632 ft 87 kts 182°
2026-05-06 01:09 35.06280 -89.98777 513 ft 85 kts 182°
2026-05-06 01:09 35.05753 -89.98766 464 ft 70 kts 182°
2026-05-06 01:10 35.05333 -89.98755 378 ft 58 kts 181°
2026-05-06 01:10 35.04947 -89.98744 282 ft 52 kts 181°
2026-05-06 01:10 35.04668 -89.98736 276 ft 29 kts 156°
2026-05-06 01:10 35.04622 -89.98645 278 ft 8 kts 40°
2026-05-06 01:11 35.04629 -89.98638 278 ft 0 kts 39°
2026-05-06 01:13 35.04636 -89.98630 278 ft 6 kts 40°
2026-05-06 01:13 35.04653 -89.98614 278 ft 0 kts 37°
2026-05-06 01:13 35.04657 -89.98610 278 ft 0 kts 41°
2026-05-06 01:13 35.04679 -89.98584 278 ft 5 kts 56°
2026-05-06 01:14 35.04806 -89.98511 277 ft 13 kts
2026-05-06 01:14 35.04915 -89.98512 275 ft 21 kts 358°
2026-05-06 01:14 35.05092 -89.98514 272 ft 25 kts 358°
2026-05-06 01:15 35.05229 -89.98510 268 ft 2 kts
2026-05-06 01:15 35.05282 -89.98513 266 ft 14 kts 14°
2026-05-06 01:15 35.05357 -89.98510 263 ft 15 kts 356°
2026-05-06 01:15 35.05404 -89.98511 262 ft 5 kts 357°
2026-05-06 01:16 35.05466 -89.98507 261 ft 12 kts 359°
2026-05-06 01:16 35.05569 -89.98489 258 ft 12 kts 81°
2026-05-06 01:16 35.05563 -89.98407 258 ft 6 kts 104°
2026-05-06 01:16 35.05514 -89.98353 260 ft 14 kts 147°
2026-05-06 01:17 35.05495 -89.98260 261 ft 10 kts 85°
2026-05-06 01:17 35.05530 -89.98182 260 ft 11 kts 38°
2026-05-06 01:17 35.05536 -89.98182 260 ft 0 kts 158°